This is the latest recevied weather packets stored in our database for station/object N4CRH-13. If no packets are shown the sender has not sent any weather packets the latest 10 day(s).
| Time | Temp. | Humidity | Pressure | Rain* | Wind** | Luminosity | Snow |
|---|---|---|---|---|---|---|---|
| 1778116003 | 2.22° C | 84% | 1295.3 hPa | 0 mm | - | 37 W/m² | - |
| 1778115700 | 2.22° C | 84% | 1295.1 hPa | 0 mm | - | 43 W/m² | - |
| 1778115397 | 2.22° C | 84% | 1295.2 hPa | 0 mm | - | 50 W/m² | - |
| 1778115093 | 1.11° C | 85% | 1295.3 hPa | 0 mm | - | 51 W/m² | - |
| 1778114791 | 1.11° C | 85% | 1295.2 hPa | 0 mm | - | 57 W/m² | - |
| 1778114488 | 1.11° C | 85% | 1295.1 hPa | 0 mm | - | 60 W/m² | - |
| 1778114184 | 1.67° C | 83% | 1295.2 hPa | 0 mm | - | 66 W/m² | - |
| 1778113879 | 1.67° C | 83% | 1295.2 hPa | 0 mm | - | 71 W/m² | - |
| 1778113576 | 1.67° C | 84% | 1295.2 hPa | 0 mm | - | 77 W/m² | - |
| 1778113272 | 1.67° C | 85% | 1295.2 hPa | 0 mm | - | 85 W/m² | - |
| 1778112969 | 1.67° C | 85% | 1295.3 hPa | 0 mm | - | 103 W/m² | - |
| 1778112666 | 1.67° C | 85% | 1295.3 hPa | 0 mm | - | 111 W/m² | - |
| 1778112362 | 0.56° C | 87% | 1295.4 hPa | 0 mm | - | 138 W/m² | - |
| 1778112058 | 0.56° C | 87% | 1295.4 hPa | 0 mm | - | 94 W/m² | - |
| 1778111755 | 0.56° C | 87% | 1295.4 hPa | 0 mm | - | 87 W/m² | - |
| 1778111450 | 0.56° C | 87% | 1295.7 hPa | 0 mm | - | 104 W/m² | - |
| 1778111148 | 0° C | 87% | 1295.6 hPa | 0 mm | - | 122 W/m² | - |
| 1778110845 | 0.56° C | 86% | 1295.7 hPa | 0 mm | - | 79 W/m² | - |
| 1778110542 | 0.56° C | 84% | 1295.3 hPa | 0 mm | - | 66 W/m² | - |
| 1778110239 | 0.56° C | 84% | 1295.6 hPa | 0 mm | - | 240 W/m² | - |
| 1778109935 | 1.11° C | 82% | 1295.4 hPa | 0 mm | - | 248 W/m² | - |
| 1778109631 | 0.56° C | 83% | 1295.4 hPa | 0 mm | - | 260 W/m² | - |
| 1778109328 | 0.56° C | 86% | 1295.3 hPa | 0 mm | - | 277 W/m² | - |
| 1778109026 | 1.11° C | 85% | 1295.3 hPa | 0 mm | - | 302 W/m² | - |
| 1778108722 | 0.56° C | 86% | 1295.4 hPa | 0 mm | - | 196 W/m² | - |
* Rain latest hour (hover to see other rain measurements)
** Current wind speed in m/s (hover to see current wind gust speed)